Location: Carite
(10.3909°N, 67.0102°W)
Time: 02:38:23
(UTC+00:00)

Cosmos 1802 Rocket - Pass Details

Date: 08 September 2024
Orbit: 955 x 1010 km, 82.9° (Epoch: 06 October)

Event Time Altitude Azimuth Distance (km) Brightness Sun altitude
Rises 22:57:24 0° 186° (S) 3,623 7.0 -6.9°
Reaches altitude 10° 22:59:54 10° 187° (S) 2,677 6.3 -7.5°
Maximum altitude 23:06:00 78° 274° (W) 977 4.2 -9.0°
Drops below altitude 10° 23:12:09 10° 360° (N) 2,690 6.4 -10.5°
Sets 23:14:39 0° 1° (N) 3,642 7.1 -11.1°
